Previsão horária em Ceneb

Hoje, 27 Julho, Terça-feira

Tempo Temperatura Precipitação Vento Pressão Humidade
00:00 +16°C° 0.1 mm 2 m/s 623 mmHg 91%
01:00 +15°C° 0.1 mm 1 m/s 623 mmHg 91%
02:00 +15°C° 0.1 mm 1 m/s 623 mmHg 91%
03:00 +15°C° 0.1 mm 1 m/s 622 mmHg 91%
04:00 +16°C° 0.1 mm 1 m/s 622 mmHg 89%
05:00 +16°C° 0.1 mm 1 m/s 622 mmHg 86%
06:00 +18°C° 0.1 mm 1 m/s 623 mmHg 84%
07:00 +19°C° 0.2 mm 1 m/s 623 mmHg 80%
08:00 +20°C° 0.2 mm 2 m/s 623 mmHg 75%
09:00 +21°C° 0.2 mm 2 m/s 623 mmHg 71%
10:00 +21°C° 0.5 mm 2 m/s 623 mmHg 71%
11:00 +21°C° 0.5 mm 2 m/s 623 mmHg 71%
12:00 +21°C° 0.5 mm 2 m/s 623 mmHg 71%
13:00 +21°C° 0.5 mm 2 m/s 622 mmHg 71%
14:00 +21°C° 0.5 mm 2 m/s 622 mmHg 72%
15:00 +20°C° 0.5 mm 2 m/s 622 mmHg 73%
16:00 +19°C° 0.4 mm 2 m/s 622 mmHg 77%
17:00 +18°C° 0.4 mm 2 m/s 622 mmHg 81%
18:00 +17°C° 0.4 mm 2 m/s 622 mmHg 85%
19:00 +16°C° 0.3 mm 1 m/s 622 mmHg 87%
20:00 +16°C° 0.3 mm 1 m/s 622 mmHg 89%
21:00 +15°C° 0.3 mm 1 m/s 622 mmHg 91%
22:00 +15°C° 1 mm 1 m/s 622 mmHg 93%
23:00 +14°C° 1 mm 2 m/s 621 mmHg 96%

Amanhã, 28 Julho, Quarta-feira

Tempo Temperatura Precipitação Vento Pressão Humidade
00:00 +14°C° 1 mm 2 m/s 621 mmHg 98%
01:00 +14°C° 2.8 mm 2 m/s 621 mmHg 96%
02:00 +14°C° 2.8 mm 1 m/s 621 mmHg 95%
03:00 +14°C° 2.8 mm 1 m/s 621 mmHg 94%
04:00 +14°C° 0.5 mm 1 m/s 621 mmHg 95%
05:00 +14°C° 0.5 mm 1 m/s 621 mmHg 96%
06:00 +14°C° 0.5 mm 1 m/s 621 mmHg 97%
07:00 +14°C° 0.3 mm 1 m/s 621 mmHg 97%
08:00 +14°C° 0.3 mm 2 m/s 621 mmHg 96%
09:00 +14°C° 0.3 mm 2 m/s 621 mmHg 96%
10:00 +14°C° 0.6 mm 2 m/s 621 mmHg 96%
11:00 +13°C° 0.6 mm 2 m/s 621 mmHg 97%
12:00 +13°C° 0.6 mm 2 m/s 621 mmHg 97%
13:00 +13°C° 0.6 mm 2 m/s 621 mmHg 96%
14:00 +13°C° 0.6 mm 2 m/s 621 mmHg 96%
15:00 +13°C° 0.6 mm 1 m/s 621 mmHg 96%
16:00 +13°C° 0.2 mm 1 m/s 621 mmHg 96%
17:00 +13°C° 0.2 mm 1 m/s 621 mmHg 96%
18:00 +13°C° 0.2 mm 1 m/s 621 mmHg 96%
19:00 +13°C° 0 mm 1 m/s 622 mmHg 96%
20:00 +13°C° 0 mm 1 m/s 622 mmHg 96%
21:00 +12°C° 0 mm 0 m/s 622 mmHg 96%
22:00 +12°C° 0.4 mm 0 m/s 622 mmHg 96%
23:00 +12°C° 0.4 mm 0 m/s 622 mmHg 96%

Depois de amanhã, 29 Julho, Quinta-feira

Tempo Temperatura Precipitação Vento Pressão Humidade
00:00 +12°C° 0.4 mm 0 m/s 621 mmHg 96%
01:00 +12°C° 0.1 mm 0 m/s 621 mmHg 96%
02:00 +12°C° 0.1 mm 0 m/s 621 mmHg 95%
03:00 +12°C° 0.1 mm 0 m/s 621 mmHg 95%
04:00 +12°C° 0 mm 0 m/s 621 mmHg 93%
05:00 +12°C° 0 mm 0 m/s 621 mmHg 92%
06:00 +13°C° 0 mm 0 m/s 621 mmHg 91%
07:00 +14°C° 0.1 mm 1 m/s 622 mmHg 88%
08:00 +15°C° 0.1 mm 1 m/s 622 mmHg 85%
09:00 +16°C° 0.1 mm 1 m/s 622 mmHg 81%
10:00 +18°C° 0.3 mm 1 m/s 622 mmHg 80%
11:00 +18°C° 0.3 mm 1 m/s 622 mmHg 78%
12:00 +19°C° 0.3 mm 1 m/s 622 mmHg 76%
13:00 +19°C° 0.2 mm 1 m/s 622 mmHg 76%
14:00 +19°C° 0.2 mm 1 m/s 622 mmHg 76%
15:00 +19°C° 0.2 mm 1 m/s 622 mmHg 76%
16:00 +19°C° 0.2 mm 1 m/s 622 mmHg 77%
17:00 +19°C° 0.2 mm 1 m/s 622 mmHg 78%
18:00 +19°C° 0.2 mm 1 m/s 622 mmHg 79%
19:00 +18°C° 0 mm 1 m/s 622 mmHg 81%
20:00 +16°C° 0 mm 1 m/s 622 mmHg 84%
21:00 +15°C° 0 mm 1 m/s 621 mmHg 87%
22:00 +15°C° 0 mm 1 m/s 621 mmHg 86%
23:00 +14°C° 0 mm 2 m/s 621 mmHg 86%

30 Julho, Sexta-feira

Tempo Temperatura Precipitação Vento Pressão Humidade
00:00 +14°C° 0 mm 2 m/s 621 mmHg 85%
01:00 +14°C° 0 mm 2 m/s 620 mmHg 85%
02:00 +13°C° 0 mm 2 m/s 620 mmHg 85%
03:00 +12°C° 0 mm 2 m/s 620 mmHg 85%
04:00 +13°C° 0 mm 2 m/s 620 mmHg 83%
05:00 +14°C° 0 mm 2 m/s 620 mmHg 81%
06:00 +15°C° 0 mm 1 m/s 621 mmHg 78%
07:00 +16°C° 0 mm 1 m/s 621 mmHg 73%
08:00 +19°C° 0 mm 1 m/s 621 mmHg 67%
09:00 +21°C° 0 mm 1 m/s 622 mmHg 61%
10:00 +21°C° 0.2 mm 1 m/s 622 mmHg 62%
11:00 +21°C° 0.2 mm 2 m/s 622 mmHg 62%
12:00 +21°C° 0.2 mm 2 m/s 622 mmHg 62%
13:00 +21°C° 0.8 mm 2 m/s 622 mmHg 63%
14:00 +21°C° 0.8 mm 2 m/s 622 mmHg 63%
15:00 +22°C° 0.8 mm 1 m/s 622 mmHg 63%
16:00 +22°C° 0.5 mm 1 m/s 622 mmHg 66%
17:00 +21°C° 0.5 mm 1 m/s 621 mmHg 69%
18:00 +21°C° 0.5 mm 1 m/s 621 mmHg 71%
19:00 +19°C° 0.2 mm 1 m/s 621 mmHg 76%
20:00 +17°C° 0.2 mm 2 m/s 621 mmHg 80%
21:00 +15°C° 0.2 mm 2 m/s 621 mmHg 85%
22:00 +15°C° 0.1 mm 2 m/s 621 mmHg 85%
23:00 +14°C° 0.1 mm 2 m/s 621 mmHg 85%

31 Julho, Sábado

Tempo Temperatura Precipitação Vento Pressão Humidade
00:00 +13°C° 0.1 mm 3 m/s 620 mmHg 85%
01:00 +14°C° 0 mm 2 m/s 620 mmHg 83%
02:00 +13°C° 0 mm 2 m/s 620 mmHg 82%
03:00 +13°C° 0 mm 2 m/s 620 mmHg 81%
04:00 +14°C° 0 mm 2 m/s 620 mmHg 79%
05:00 +15°C° 0 mm 2 m/s 620 mmHg 77%
06:00 +15°C° 0 mm 2 m/s 621 mmHg 75%
07:00 +17°C° 0 mm 2 m/s 621 mmHg 68%
08:00 +20°C° 0 mm 1 m/s 621 mmHg 61%
09:00 +22°C° 0 mm 1 m/s 622 mmHg 54%
10:00 +23°C° 0 mm 1 m/s 622 mmHg 54%
11:00 +23°C° 0 mm 2 m/s 622 mmHg 53%
12:00 +24°C° 0 mm 2 m/s 622 mmHg 52%
13:00 +24°C° 0.5 mm 2 m/s 622 mmHg 54%
14:00 +24°C° 0.5 mm 2 m/s 621 mmHg 57%
15:00 +23°C° 0.5 mm 1 m/s 621 mmHg 59%
16:00 +23°C° 0.5 mm 1 m/s 621 mmHg 63%
17:00 +22°C° 0.5 mm 1 m/s 621 mmHg 67%
18:00 +21°C° 0.5 mm 1 m/s 621 mmHg 72%
19:00 +20°C° 0.2 mm 1 m/s 621 mmHg 76%
20:00 +18°C° 0.2 mm 1 m/s 621 mmHg 80%
21:00 +16°C° 0.2 mm 2 m/s 621 mmHg 84%
22:00 +16°C° 0.3 mm 2 m/s 621 mmHg 83%
23:00 +15°C° 0.3 mm 2 m/s 621 mmHg 83%

1 Agosto, Domingo

Tempo Temperatura Precipitação Vento Pressão Humidade
00:00 +15°C° 0.3 mm 2 m/s 620 mmHg 83%
01:00 +15°C° 0 mm 2 m/s 620 mmHg 82%
02:00 +15°C° 0 mm 2 m/s 620 mmHg 81%
03:00 +15°C° 0 mm 2 m/s 620 mmHg 80%
04:00 +15°C° 0 mm 2 m/s 620 mmHg 79%
05:00 +16°C° 0 mm 2 m/s 620 mmHg 78%
06:00 +16°C° 0 mm 1 m/s 621 mmHg 76%
07:00 +19°C° 0.2 mm 1 m/s 621 mmHg 72%
08:00 +20°C° 0.2 mm 1 m/s 621 mmHg 68%
09:00 +21°C° 0.2 mm 1 m/s 621 mmHg 64%
10:00 +20°C° 0.7 mm 2 m/s 621 mmHg 64%
11:00 +20°C° 0.7 mm 2 m/s 622 mmHg 63%
12:00 +20°C° 0.7 mm 2 m/s 622 mmHg 63%
13:00 +21°C° 0.3 mm 2 m/s 622 mmHg 63%
14:00 +21°C° 0.3 mm 2 m/s 621 mmHg 62%
15:00 +21°C° 0.3 mm 3 m/s 621 mmHg 61%
16:00 +20°C° 0.1 mm 2 m/s 621 mmHg 65%
17:00 +20°C° 0.1 mm 2 m/s 621 mmHg 68%
18:00 +19°C° 0.1 mm 2 m/s 621 mmHg 71%
19:00 +19°C° 0 mm 1 m/s 621 mmHg 75%
20:00 +16°C° 0 mm 1 m/s 621 mmHg 79%
21:00 +15°C° 0 mm 1 m/s 621 mmHg 83%
22:00 +15°C° 0 mm 1 m/s 621 mmHg 82%
23:00 +14°C° 0 mm 1 m/s 620 mmHg 80%
Mostrar mais

Necessitamos do seu Consentimento

A Meteoprog e os seus Fornecedores de Serviços podem armazenar e aceder a dados pessoais como cookies, identificadores do dispositivo ou outras tecnologias semelhantes existentes no seu dispositivo e processar estes dados para personalizar conteúdos e anúncios, assim como funcionalidades nas redes sociais e análise de tráfego.

  • Armazenar e/ou aceder a informações no seu dispositivo

    Os cookies, identificadores do dispositivo ou outras informações podem ser armazenados ou acedidos no seu dispositivo, para os fins acima indicados.

  • Anúncios e conteúdos personalizados, medição de anúncios e conteúdos, dados sobre o público-alvo e desenvolvimento de produtos

    Os anúncios e os conteúdos podem ser personalizados com base num perfil. Podem ser adicionados dados adicionais para uma maior personalização dos anúncios e dos conteúdos. A eficácia dos anúncios e dos conteúdos pode ser medida. Podem ser obtidas informações sobre o público que visualizou os anúncios e os conteúdos. Estes dados podem ser usados para desenvolver ou melhorar sistemas, softwares ou a experiência do utilizador.

Ao clicar em "Eu concordo”, permitirá o uso de cookies, identificadores do dispositivo e web beacons mencionados ou outras tecnologias semelhantes. As configurações do navegador do seu dispositivo podem ser alteradas.

Para certos fins, podem ser invocados interesses legítimos ao invés de consentimento. Pode ler mais informação sobre este assunto na nossa Política de Privacidade e Cookies.